Wind_Speed
14 15 14 14 13 13 12 12 13 14 14 13 13 13 12 11 11 11 13 14 14 15 14 13 12 11 10 10 10 9 9 9 9 9 10 11 11 11 9 8 6 4 1
13 13 13 13 13 12 11 11 12 13 13 12 12 12 11 10 10 10 11 12 13 13 13 13 12 11 11 10 10 10 10 10 10 10 10 11 12 12 11 9 8 7 4
13 12 12 11 10 10 8 7 8 8 9 9 9 10 9 9 10 10 10 11 11 12 12 12 12 11 11 10 10 11 11 10 10 10 10 11 12 12 12 11 9 8 7
13 12 12 10 9 8 6 5 3 4 4 5 6 7 7 7 8 9 10 11 11 11 11 12 12 11 10 10 10 11 11 11 11 11 11 12 12 12 12 12 11 10 8
12 11 10 9 9 8 7 5 4 3 3 3 3 4 5 5 6 7 9 10 10 11 11 11 12 12 11 11 11 11 11 11 11 12 12 12 12 12 12 12 12 11 10
8 9 8 7 7 7 7 6 5 4 3 3 2 2 2 2 3 4 6 8 9 10 10 11 11 12 12 12 12 12 13 12 12 12 12 12 12 12 12 12 12 11 10
4 5 4 4 4 4 4 4 4 4 3 3 2 2 2 3 3 5 6 8 8 8 9 10 10 10 11 12 13 12 13 13 12 12 12 11 11 11 11 12 12 12 10
6 4 4 3 2 1 0 1 2 2 3 4 4 4 5 6 6 8 9 10 10 9 9 9 10 10 10 11 12 12 12 12 12 12 12 11 11 12 12 12 13 13 12
8 8 7 5 5 5 5 4 4 4 5 6 7 7 8 8 9 10 11 12 12 12 11 9 9 10 11 11 12 12 12 12 12 12 12 11 12 13 13 13 13 14 14
11 10 9 7 7 7 7 6 6 7 7 8 8 9 9 10 11 12 13 14 13 13 12 11 9 10 11 12 12 13 13 13 12 12 12 13 14 14 15 15 15 15 16
13 12 11 10 9 10 9 8 9 10 11 12 11 9 9 10 12 14 15 15 15 14 13 12 11 11 12 13 13 14 14 14 13 12 13 13 15 15 16 17 17 18 18
15 14 13 12 12 12 12 13 13 14 16 16 14 12 13 14 16 18 18 16 15 15 14 13 12 13 14 14 14 14 15 14 14 13 13 14 15 16 17 18 18 19 19
16 17 16 15 15 17 18 18 19 20 21 21 19 19 19 20 22 22 21 19 17 16 15 15 15 15 15 14 13 15 15 15 15 14 15 16 17 18 18 19 19 19 20
17 18 19 19 21 22 23 24 24 25 24 22 21 21 23 26 27 27 25 23 20 19 17 17 15 15 14 13 13 14 15 16 16 16 17 18 20 21 21 21 20 20 20
17 17 19 21 23 24 25 26 26 25 23 21 21 23 26 28 30 30 28 26 24 22 20 19 17 16 14 14 14 14 14 15 17 17 17 19 20 22 22 21 21 22 22
20 19 20 21 23 25 26 26 26 25 24 22 23 25 28 31 32 33 30 29 28 27 25 23 21 18 17 16 16 15 15 15 16 17 17 19 21 21 21 21 21 22 22
24 24 25 25 26 27 28 29 29 29 28 27 26 27 30 33 34 35 35 32 30 29 29 27 24 21 19 18 18 17 16 16 16 17 18 19 20 20 20 21 22 22 21
29 29 30 31 30 30 31 32 32 33 33 32 31 31 32 35 36 36 37 36 35 33 32 31 28 25 23 21 20 19 18 18 18 19 19 19 19 18 18 21 22 23 22
34 34 35 35 35 34 34 35 36 37 37 38 36 35 35 37 38 38 38 38 37 36 35 33 31 29 27 24 23 21 20 20 20 20 21 20 20 20 20 21 23 24 24
37 38 38 39 38 38 38 38 39 39 40 42 41 39 39 38 38 38 38 39 39 38 37 36 33 31 29 27 25 23 22 22 21 22 22 21 20 22 23 24 24 26 26
40 41 42 42 42 41 42 42 42 42 43 44 44 43 43 41 39 38 38 39 40 39 36 35 35 33 31 28 27 25 24 24 24 24 23 22 21 21 23 25 26 27 27
43 43 44 44 44 44 45 45 45 45 45 45 45 46 46 44 41 39 39 40 40 39 37 35 35 35 33 31 29 27 27 28 26 26 24 22 22 23 24 25 26 27 27
46 46 46 46 46 46 46 46 45 45 45 46 47 48 48 46 43 42 41 42 41 39 37 36 36 36 36 33 31 30 29 30 28 26 24 23 23 24 25 25 26 26 27
48 48 48 48 47 46 45 45 45 46 47 48 49 50 49 48 46 45 45 44 42 40 38 36 36 37 38 36 33 31 30 30 29 27 25 24 24 24 25 26 28 28 29
47 48 47 47 46 46 46 46 47 48 49 50 51 51 51 50 49 47 46 45 43 41 39 39 38 38 39 38 34 30 29 30 30 28 26 26 25 24 24 25 28 30 31
45 45 45 45 45 46 46 47 48 50 51 52 52 52 51 51 49 47 46 45 43 42 41 41 40 39 39 39 35 31 29 29 29 28 26 27 28 28 27 26 27 29 29
Wind_Direction
94 91 87 86 86 85 87 91 93 92 90 87 83 78 76 73 65 56 52 48 43 39 38 40 39 32 26 22 18 14 12 9 7 7 7 5 3 1 357 354 357 359 12
93 91 87 84 84 83 83 87 93 94 90 85 78 72 69 65 58 49 43 41 39 34 30 32 36 33 25 19 15 10 6 5 5 5 5 4 1 1 360 356 354 356 344
90 88 86 84 83 83 84 86 89 91 85 79 74 68 64 59 53 46 38 31 29 26 23 22 23 26 23 17 12 9 5 2 1 2 1 359 357 357 357 356 353 355 0
91 87 85 84 82 78 77 77 72 70 70 71 68 65 65 60 54 49 40 30 23 18 15 14 14 13 12 10 7 4 2 1 1 2 2 359 357 1 0 357 353 349 348
97 90 86 85 82 78 71 62 48 41 46 59 66 65 69 67 59 46 37 29 22 16 10 6 6 4 3 3 0 357 356 357 358 359 2 3 358 2 359 354 349 343 338
106 100 93 86 79 73 68 60 48 36 37 47 59 61 59 54 44 28 21 18 16 13 8 1 356 355 356 358 356 353 353 353 352 351 353 359 354 352 350 348 345 339 333
147 127 122 108 87 71 59 48 38 25 12 7 7 355 337 336 338 339 346 351 353 355 359 357 349 343 347 351 353 351 349 350 351 350 346 349 342 341 341 341 341 340 335
217 198 191 191 207 235 313 341 335 329 319 314 315 318 319 321 320 319 323 327 328 330 334 339 338 332 332 339 342 344 343 341 344 345 345 346 332 332 332 332 332 331 329
229 226 225 231 245 258 266 275 286 295 297 293 292 294 299 303 306 308 309 312 314 315 318 323 327 322 320 325 329 330 331 331 331 333 336 337 325 324 321 319 321 322 322
235 235 238 245 254 259 266 275 284 294 300 298 295 294 296 298 300 300 300 301 303 306 307 309 317 320 316 316 319 320 321 323 323 322 327 326 319 318 314 312 312 312 314
239 239 244 250 257 263 270 279 288 301 308 307 302 303 307 311 312 308 302 297 296 299 299 299 307 315 314 314 315 315 313 315 319 321 326 322 321 318 313 310 308 306 306
246 245 249 254 261 268 277 286 294 303 309 308 302 304 310 315 317 314 309 301 295 295 293 291 300 311 310 309 309 307 306 308 312 320 325 325 329 325 320 315 309 305 302
254 255 258 262 268 275 283 292 299 303 307 308 302 302 312 316 317 315 309 303 295 290 288 287 293 302 305 305 302 298 298 300 304 311 316 319 323 323 322 319 313 308 303
258 262 266 269 275 281 287 294 299 302 304 306 304 307 314 317 318 318 311 303 296 290 287 286 287 293 299 302 298 293 293 294 295 298 306 313 317 318 319 320 319 315 310
271 274 276 276 277 280 286 292 296 299 303 306 306 308 311 314 315 317 313 306 300 294 290 287 288 289 296 303 301 295 291 290 291 296 302 308 312 314 316 318 320 320 317
277 279 280 281 280 281 283 288 293 297 300 302 304 306 308 310 312 313 311 304 300 297 293 288 285 284 290 297 297 294 291 289 290 296 302 306 310 313 314 315 318 321 319
276 278 279 280 281 282 284 287 291 294 297 298 300 302 304 305 307 309 310 304 297 294 295 290 283 281 283 287 292 292 290 289 288 293 299 304 307 311 313 313 316 318 317
274 277 278 280 282 284 286 288 289 290 292 293 295 297 300 301 302 305 306 305 297 291 290 288 281 277 278 280 284 288 288 288 289 292 296 299 302 304 307 309 312 314 314
272 274 276 278 281 283 284 285 286 288 290 293 295 298 299 301 302 304 305 305 302 293 287 284 279 275 274 275 278 282 285 286 288 290 292 293 295 299 301 303 307 310 311
270 272 273 276 279 280 281 282 284 286 289 292 296 299 301 301 302 304 303 304 305 300 289 282 276 272 270 272 274 277 281 284 286 287 286 286 287 292 295 297 300 303 305
268 270 272 275 277 278 279 281 283 285 287 290 293 296 299 300 300 301 301 301 301 301 295 283 273 268 267 269 272 276 280 284 286 284 281 281 281 284 290 294 296 297 298
267 269 271 273 275 276 277 278 280 283 284 285 288 292 295 296 297 297 297 297 297 295 292 284 275 267 264 265 268 273 279 283 284 281 276 276 279 286 289 291 292 293 294
267 269 271 273 274 274 274 276 278 280 280 282 285 288 290 292 293 294 294 294 293 290 287 283 277 268 263 263 265 270 275 281 280 276 272 272 278 285 290 292 292 291 291
266 268 270 271 273 273 274 275 277 279 280 281 283 285 287 288 289 289 289 289 287 284 281 279 276 271 266 262 263 268 275 277 276 273 271 270 274 282 289 293 294 292 291
262 264 266 268 269 271 273 275 277 279 280 281 282 283 285 286 287 286 285 283 280 278 275 275 274 270 266 262 261 266 272 275 274 271 273 278 281 284 288 291 290 290 289
260 262 263 265 267 269 272 274 277 279 281 283 284 285 285 285 285 283 280 277 274 272 270 271 271 268 265 261 259 264 269 273 270 269 274 282 288 292 294 294 291 289 290
Height
5917 5917 5918 5918 5918 5919 5919 5919 5919 5918 5918 5918 5918 5918 5917 5916 5916 5915 5914 5913 5912 5912 5911 5910 5909 5908 5908 5907 5907 5906 5906 5905 5905 5904 5904 5903 5903 5902 5902 5902 5901 5901 5902
5920 5919 5920 5920 5920 5921 5921 5922 5921 5921 5921 5921 5920 5920 5919 5919 5918 5918 5917 5915 5914 5914 5913 5911 5911 5910 5909 5908 5908 5907 5907 5906 5906 5905 5904 5904 5903 5903 5902 5902 5901 5901 5901
5921 5922 5922 5922 5923 5923 5923 5924 5923 5923 5923 5923 5922 5922 5922 5921 5920 5920 5919 5918 5916 5915 5914 5913 5912 5911 5910 5909 5909 5908 5907 5907 5906 5906 5905 5904 5904 5903 5903 5902 5901 5901 5900
5923 5924 5924 5924 5924 5925 5925 5925 5925 5925 5924 5924 5923 5923 5923 5923 5922 5921 5920 5919 5918 5917 5916 5915 5913 5912 5911 5910 5910 5909 5908 5907 5906 5906 5905 5904 5903 5903 5903 5902 5901 5901 5900
5925 5925 5925 5925 5925 5926 5926 5926 5926 5926 5925 5925 5924 5924 5924 5923 5923 5922 5921 5920 5919 5918 5917 5916 5915 5913 5912 5911 5910 5909 5909 5908 5907 5906 5905 5905 5904 5903 5902 5902 5901 5901 5900
5925 5925 5926 5926 5927 5927 5927 5927 5927 5927 5926 5925 5925 5924 5924 5924 5923 5922 5921 5921 5920 5919 5918 5917 5916 5914 5913 5912 5911 5910 5909 5908 5907 5906 5905 5905 5904 5902 5902 5901 5900 5900 5899
5926 5926 5926 5927 5927 5928 5927 5927 5927 5927 5926 5926 5925 5925 5924 5924 5923 5923 5922 5921 5920 5919 5918 5917 5916 5914 5913 5912 5911 5910 5909 5908 5907 5906 5905 5905 5904 5902 5902 5901 5900 5899 5899
5926 5926 5926 5926 5927 5927 5927 5927 5927 5926 5926 5925 5925 5925 5924 5924 5923 5923 5922 5921 5920 5919 5918 5916 5915 5914 5913 5912 5911 5910 5909 5908 5907 5906 5905 5905 5903 5902 5901 5900 5899 5899 5898
5925 5926 5926 5926 5926 5926 5926 5926 5926 5926 5925 5925 5925 5924 5924 5923 5922 5922 5921 5920 5919 5918 5917 5916 5914 5913 5912 5911 5910 5909 5909 5908 5907 5905 5905 5904 5903 5902 5901 5899 5898 5897 5897
5925 5925 5925 5925 5925 5925 5925 5925 5925 5925 5925 5925 5924 5923 5922 5922 5921 5920 5919 5919 5918 5917 5916 5916 5914 5913 5912 5911 5910 5908 5908 5907 5906 5905 5904 5903 5902 5901 5900 5899 5898 5896 5895
5923 5924 5924 5925 5924 5924 5924 5924 5924 5925 5925 5924 5924 5923 5922 5921 5920 5919 5918 5917 5916 5916 5915 5915 5913 5912 5911 5910 5909 5907 5906 5906 5905 5904 5904 5902 5901 5899 5898 5897 5896 5895 5893
5921 5922 5923 5923 5924 5924 5924 5923 5924 5924 5924 5924 5923 5923 5922 5921 5920 5919 5917 5916 5915 5914 5913 5913 5912 5911 5910 5908 5907 5906 5905 5904 5903 5903 5902 5901 5899 5898 5896 5895 5894 5892 5891
5919 5920 5921 5921 5922 5922 5922 5922 5922 5922 5922 5922 5922 5922 5922 5920 5919 5918 5917 5915 5914 5912 5911 5911 5911 5910 5908 5907 5905 5904 5903 5902 5902 5901 5900 5899 5897 5896 5894 5892 5891 5889 5888
5917 5917 5918 5919 5919 5919 5919 5919 5919 5920 5920 5920 5920 5920 5920 5919 5917 5916 5916 5915 5913 5911 5909 5908 5908 5907 5906 5905 5903 5902 5900 5900 5899 5899 5898 5896 5895 5893 5891 5889 5887 5886 5884
5914 5915 5915 5916 5916 5915 5915 5915 5915 5915 5916 5917 5917 5917 5917 5916 5915 5914 5913 5912 5911 5909 5908 5906 5905 5904 5903 5902 5900 5899 5898 5897 5896 5895 5895 5893 5891 5890 5888 5886 5884 5882 5881
5911 5912 5912 5912 5912 5912 5912 5912 5912 5912 5912 5913 5914 5914 5913 5912 5911 5910 5909 5909 5908 5907 5906 5904 5902 5901 5900 5899 5897 5896 5895 5894 5893 5892 5891 5889 5888 5886 5884 5882 5881 5879 5877
5907 5907 5908 5908 5908 5908 5908 5908 5907 5907 5908 5909 5909 5910 5909 5907 5906 5905 5904 5903 5902 5902 5901 5900 5899 5897 5896 5895 5894 5892 5891 5890 5889 5888 5887 5886 5884 5882 5880 5879 5877 5876 5874
5902 5903 5903 5903 5903 5903 5903 5903 5903 5902 5902 5903 5904 5904 5904 5902 5901 5899 5898 5896 5895 5894 5894 5894 5894 5893 5892 5891 5889 5888 5887 5886 5885 5884 5883 5881 5880 5879 5877 5875 5874 5872 5870
5897 5898 5898 5898 5898 5898 5898 5897 5897 5896 5896 5896 5896 5897 5898 5897 5895 5894 5892 5889 5887 5887 5886 5886 5887 5887 5886 5885 5884 5884 5883 5882 5880 5879 5878 5877 5875 5874 5873 5872 5870 5868 5866
5891 5891 5891 5891 5892 5892 5892 5891 5890 5890 5889 5889 5889 5889 5890 5890 5889 5887 5886 5883 5880 5878 5878 5878 5878 5879 5879 5879 5878 5878 5878 5877 5875 5874 5873 5872 5871 5869 5868 5867 5866 5864 5862
5885 5885 5885 5885 5885 5885 5885 5884 5883 5883 5883 5882 5882 5882 5882 5882 5882 5881 5879 5876 5873 5871 5870 5869 5869 5870 5872 5872 5871 5871 5871 5870 5870 5869 5867 5866 5866 5865 5864 5862 5860 5859 5858
5877 5877 5877 5878 5878 5877 5877 5877 5877 5876 5876 5876 5876 5875 5874 5874 5874 5873 5871 5869 5866 5864 5862 5862 5862 5862 5863 5864 5864 5864 5864 5864 5863 5862 5861 5861 5860 5860 5859 5858 5856 5853 5852
5867 5868 5868 5869 5869 5870 5870 5869 5869 5869 5869 5868 5868 5868 5867 5866 5866 5864 5863 5861 5858 5857 5855 5854 5854 5854 5855 5855 5856 5857 5857 5856 5855 5855 5855 5855 5855 5854 5853 5851 5850 5848 5846
5858 5859 5859 5860 5860 5861 5861 5861 5861 5861 5861 5860 5860 5859 5858 5857 5856 5856 5854 5852 5850 5848 5847 5846 5846 5847 5847 5847 5848 5848 5849 5849 5848 5848 5848 5849 5849 5849 5848 5846 5843 5841 5840
5849 5850 5850 5851 5851 5852 5852 5852 5852 5851 5851 5851 5850 5850 5849 5847 5846 5845 5843 5842 5840 5839 5838 5837 5837 5838 5839 5840 5840 5840 5841 5841 5841 5841 5841 5842 5842 5843 5842 5841 5838 5836 5834
5840 5841 5842 5842 5843 5843 5843 5843 5843 5842 5841 5840 5839 5838 5837 5836 5834 5833 5832 5831 5830 5829 5828 5828 5827 5828 5830 5831 5832 5832 5833 5834 5834 5834 5834 5834 5834 5834 5834 5834 5832 5830 5828